Regional Weather Roundup
Issued by NWS

Home | Current Version | Previous Version | Graphics & Text | Print | Product List | Glossary On
Versions: 1 2 3 4 5 6 7 8 9 10 11 12 13 14 15 16 17 18 19 20 21 22 23 24 25 26 27 28 29 30 31 32 33 34 35 36 37 38 39 40 41 42 43 44 45 46 47 48 49 50
000
ASUS45 KABQ 282110
RWRNM
NEW MEXICO REGIONAL WEATHER ROUNDUP
NATIONAL WEATHER SERVICE ALBUQUERQUE NM
300 PM MDT FRI APR 28 2017

NOTE: "FAIR" MEANS FEW OR NO CLOUDS BELOW 12,000 FEET AGL WITH NO
       SIGNIFICANT WEATHER OR OBSTRUCTIONS TO VISION.

      THIS PRODUCT IS RELEASED AS TWO VERSIONS.  ONE VERSION NEAR
      THE TOP OF THE HOUR CONTAINING PRELIMINARY DATA FROM ALBUQUERQUE
      AND OTHER STATIONS.  A FINAL VERSION WITH ADDITIONAL DATA IS
      ISSUED ABOUT 10 MINUTES AFTER THE HOUR.

NMZ501-503-504-510>518-282200-
NORTHWEST PLATEAU/NORTHCENTRAL MOUNTAINS

CITY           SKY/WX    TMP DP  RH WIND       PRES   REMARKS
FARMINGTON     FAIR      41  37  86 S9        29.75S
LOS ALAMOS     MIX PCPN  33  33 100 S3        29.78R
SANTA FE       LGT SNOW  35  35 100 SE8       29.77S FOG     WCI  29
TAOS             N/A     39  28  65 SW8       29.75F WCI  34
ANGEL FIRE     PTSUNNY   34  24  67 SW7       29.76F WCI  28

$$
NMZ402-403-502-505>509-282200-
WESTCENTRAL MOUNTAINS/SOUTHWEST MOUNTAINS

CITY           SKY/WX    TMP DP  RH WIND       PRES   REMARKS
GALLUP         CLOUDY    43  27  53 NW13G26   29.76F
GRANTS         LGT RAIN  37  34  89 NW3       29.79F
SILVER CITY    CLOUDY    68  37  31 SW20G29   29.70F

$$
NMZ407-409-411-412-282200-
SOUTHERN DESERTS

CITY           SKY/WX    TMP DP  RH WIND       PRES   REMARKS
DEMING         FAIR      79  38  22 W25G38    29.63F
LAS CRUCES     FAIR      79  33  19 SW30G40   29.64F
HOLLOMAN AFB   FAIR      78  36  21 W21G26    29.64F
ALAMOGORDO     FAIR      77  34  20 SW14G21   29.63F
T OR C         FAIR      75  33  21 W14G26    29.61F

$$
NMZ519>523-282200-
CENTRAL VALLEYS/CENTRAL HIGHLANDS

CITY           SKY/WX    TMP DP  RH WIND       PRES   REMARKS
ALBUQUERQUE    LGT RAIN  44  39  82 VRB3      29.79S
DOUBLE EAGLE   LGT RAIN  39  37  93 VRB5      29.79S
MORIARTY ARPT  LGT RAIN  42  38  87 N13       29.80R
CLINES CORNERS MIX PCPN  35  33  92 NW18      29.78R WCI  24
BELEN          DRIZZLE   44  39  83 N10       29.81R
SOCORRO        PTSUNNY   51  36  56 N21G29    29.73S

$$
NMZ524>526-539-540-282200-
SOUTHCENTRAL MOUNTAINS

CITY           SKY/WX    TMP DP  RH WIND       PRES   REMARKS
RUIDOSO        FAIR      64  32  29 SW33G49   29.69F

$$
NMZ527>531-282200-
NORTHEAST HIGHLANDS/NORTHEAST PLAINS

CITY           SKY/WX    TMP DP  RH WIND       PRES   REMARKS
LAS VEGAS      MIX PCPN  34  33  96 CALM      29.76F FOG
RATON          LGT RAIN  39  36  89 S18       29.73F WCI  30
CLAYTON        HVY RAIN  41  40  96 W10       29.77R FOG

$$
NMZ532>537-282200-
EASTCENTRAL PLAINS

CITY           SKY/WX    TMP DP  RH WIND       PRES   REMARKS
SANTA ROSA     MOCLDY    55  36  49 NW18G25   29.67F
TUCUMCARI      CLOUDY    61  38  42 N22G31    29.66R
CANNON AFB     PTSUNNY   76  36  23 SW17      29.59F
CLOVIS AIRPORT FAIR      77  37  24 SW28G35   29.60F

$$
NMZ028-029-538-282200-
SOUTHEAST PLAINS

CITY           SKY/WX    TMP DP  RH WIND       PRES   REMARKS
ROSWELL        FAIR      86  34  15 SW20G36   29.54
ARTESIA        FAIR      86  36  16 W26G45    29.55F
CARLSBAD       FAIR      86  35  16 SW16G29   29.55S
HOBBS          SUNNY     84  32  15 S22G32    29.60F


$$




USA.gov is the U.S. government's official web portal to all federal, state and local government web resources and services.